TimeCST,TemperatureF,Dew PointF,Humidity,Sea Level PressureIn,VisibilityMPH,Wind Direction,Wind SpeedMPH,Gust SpeedMPH,PrecipitationIn,Events,Conditions,WindDirDegrees,DateUTC
12:53 AM,46.9,32.0,56,29.88,10.0,ESE,6.9,-,N/A,,Scattered Clouds,110,2013-02-20 06:53:00
1:53 AM,48.9,32.0,52,29.88,10.0,Calm,Calm,-,N/A,,Scattered Clouds,0,2013-02-20 07:53:00
2:53 AM,48.9,32.0,52,29.80,10.0,SE,15.0,-,N/A,,Partly Cloudy,130,2013-02-20 08:53:00
3:53 AM,48.0,35.1,61,29.78,10.0,SE,12.7,20.7,N/A,,Clear,140,2013-02-20 09:53:00
4:53 AM,46.9,39.9,77,29.78,10.0,SSE,16.1,-,N/A,,Clear,150,2013-02-20 10:53:00
5:53 AM,46.0,41.0,83,29.77,10.0,SSE,12.7,-,N/A,,Clear,160,2013-02-20 11:53:00
6:53 AM,46.9,42.1,83,29.76,10.0,SSE,19.6,29.9,N/A,,Clear,160,2013-02-20 12:53:00
7:53 AM,46.9,42.1,83,29.76,10.0,SSE,16.1,-,N/A,,Clear,160,2013-02-20 13:53:00
8:53 AM,50.0,43.0,77,29.74,10.0,South,12.7,23.0,N/A,,Clear,170,2013-02-20 14:53:00
9:53 AM,55.0,43.0,64,29.73,10.0,SSE,13.8,21.9,N/A,,Clear,160,2013-02-20 15:53:00
10:53 AM,62.1,42.1,48,29.69,10.0,South,18.4,-,N/A,,Clear,170,2013-02-20 16:53:00
11:53 AM,69.1,37.9,32,29.65,10.0,South,20.7,28.8,N/A,,Clear,170,2013-02-20 17:53:00
12:53 PM,71.1,33.1,25,29.61,10.0,South,20.7,28.8,N/A,,Clear,180,2013-02-20 18:53:00
1:53 PM,77.0,16.0,10,29.52,10.0,SSW,21.9,27.6,N/A,,Clear,200,2013-02-20 19:53:00
2:53 PM,77.0,23.0,13,29.47,10.0,SSW,24.2,29.9,N/A,,Clear,200,2013-02-20 20:53:00
3:53 PM,78.1,21.0,12,29.43,10.0,SSW,21.9,34.5,N/A,,Clear,200,2013-02-20 21:53:00
4:14 PM,69.8,41.0,35,29.53,10.0,SE,19.6,34.5,N/A,,Clear,140,2013-02-20 22:14:00
4:53 PM,66.0,46.0,48,29.42,10.0,SE,24.2,35.7,N/A,,Clear,140,2013-02-20 22:53:00
5:53 PM,62.1,46.9,58,29.40,10.0,SE,26.5,34.5,N/A,,Clear,140,2013-02-20 23:53:00
6:53 PM,59.0,51.1,75,29.40,10.0,SE,26.5,36.8,N/A,,Clear,130,2013-02-21 00:53:00
7:53 PM,59.0,52.0,78,29.40,10.0,SSE,24.2,40.3,N/A,,Clear,160,2013-02-21 01:53:00
8:53 PM,59.0,52.0,78,29.43,10.0,South,21.9,26.5,N/A,,Clear,170,2013-02-21 02:53:00
10:53 PM,57.9,24.1,27,29.47,10.0,West,16.1,25.3,N/A,,Clear,270,2013-02-21 04:53:00
11:53 PM,57.0,23.0,27,29.49,6.0,WNW,23.0,31.1,N/A,,Haze,290,2013-02-21 05:53:00